Location: Matagami
(49.7589°N, 77.6258°W)
Time: 00:36:39
(UTC-05:00)

ISS - Visible Passes

Search period start: 09 December 2023 00:00
Search period end: 19 December 2023 00:00
Orbit: 415 x 417 km, 51.6° (Epoch: 09 December)

Date Brightness Start Highest point End Pass type
(mag) Time Alt. Az. Time Alt. Az. Time Alt. Az.
15 Dec -0.7 07:09:54 10° S 07:12:15 18° SE 07:14:37 10° E visible
16 Dec -0.4 06:22:23 10° SSE 06:23:40 12° SE 06:24:58 10° ESE visible
17 Dec -2.1 07:07:57 10° SW 07:11:03 36° SSE 07:14:10 10° E visible
18 Dec -1.5 06:19:32 10° SSW 06:22:20 25° SE 06:25:08 10° E visible
